Content
SEND FEEDBACK

Daily
Averages
Monthly
Summary
United States of America

TRUCKEE, CALIFORNIA


Home > North America > United States > California
Elevation: 5966 feet     Latitude: 39 20N     Longitude: 120 11W

WEATHER
 
SELECT A DAY
Number of Records: 287,403;   Date Range: 1/1/95 - 10/18/14
 
SHARE

PRINT THIS DATA

[ ← Previous Day ]
WEATHER ALMANAC - FEBRUARY 22, 2013
[ Next Day → ]
[ °C ]   °F
Weather ElementAverageHighLow
Temperature28.6 °F44.6 °F (3:55 pm)12.2 °F (5:35 am)
Dewpoint18.7 °F26.6 °F (4:50 pm)8.6 °F (5:35 am)
Humidity68.3 %86 % (3:15 am)29 % (2:00 pm)
Barometer30.15 in30.22 in (8:55 am)30.09 in (11:55 pm)
Wind Speed4 mph17.3 mph (4:50 pm)
Wind Gust17.3 mph (4:55 pm)
Weather ElementAverage
Visibility10 mi
Wind DirectionSSE (150 °)

Weather ElementTotal
Precipitation---
Heating Degree Days36.6 (Base 65)
Averaged from 49 records on February 22, 2013
WEATHER CONDITIONS BREAKOUT
WIND DIRECTION BREAKOUT
WEATHER BY HOUR - FEBRUARY 22, 2013
[ °C ]   °F
Local TimeTemperatureDewpointHumidityBarometerVisibilityWind DirectionWind SpeedGust SpeedPrecipitationEventsConditions
12:35 AM19.4 °F12.2 °F74 %30.12 in10.0 miNNW (340°)6.9 mphClear
12:55 AM17.6 °F12.2 °F79 %30.13 in10.0 miCalmClear
1:15 AM17.6 °F12.2 °F79 %30.13 in10.0 miWSW (240°)3.5 mphClear
1:35 AM19.4 °F12.2 °F74 %30.14 in10.0 miCalmClear
1:55 AM17.6 °F12.2 °F79 %30.14 in10.0 miESE (120°)3.5 mphClear
2:15 AM17.6 °F12.2 °F79 %30.15 in10.0 miCalmClear
2:35 AM17.6 °F12.2 °F79 %30.15 in10.0 miCalmClear
2:55 AM17.6 °F12.2 °F79 %30.15 in10.0 miSSE (150°)3.5 mphClear
3:15 AM15.8 °F12.2 °F86 %30.14 in10.0 miCalmClear
3:35 AM15.8 °F12.2 °F86 %30.13 in10.0 miCalmClear
3:55 AM17.6 °F14.0 °F86 %30.13 in10.0 miCalmClear
4:15 AM15.8 °F12.2 °F86 %30.13 in10.0 miEast (90°)3.5 mphClear
4:35 AM15.8 °F10.4 °F79 %30.15 in10.0 miEast (80°)3.5 mphClear
4:55 AM14.0 °F10.4 °F86 %30.15 in10.0 miCalmClear
5:15 AM15.8 °F12.2 °F86 %30.17 in10.0 miCalmClear
5:35 AM12.2 °F8.6 °F85 %30.17 in10.0 miSouth (190°)5.8 mphClear
6:45 AM12.2 °F8.6 °F85 %30.18 in10.0 miCalmPartly Cloudy
7:55 AM17.6 °F14.0 °F86 %30.21 in10.0 miCalmClear
8:55 AM23.0 °F15.8 °F74 %30.22 in10.0 miCalmClear
9:45 AM26.6 °F15.8 °F64 %30.21 in10.0 miCalmClear
10:45 AM32.0 °F17.6 °F55 %30.21 in10.0 miCalmClear
10:55 AM32.0 °F17.6 °F55 %30.21 in10.0 miCalmClear
11:45 AM37.4 °F15.8 °F41 %30.20 in10.0 miCalmClear
12:55 PM41.0 °F14.0 °F33 %30.17 in10.0 miSW (220°)3.5 mphPartly Cloudy
2:00 PM42.8 °F12.2 °F29 %30.14 in10.0 miSE (140°)4.6 mphMostly Cloudy
3:55 PM44.6 °F24.8 °F46 %30.13 in10.0 miWest (280°)9.2 mphScattered Clouds
4:50 PM41.0 °F26.6 °F57 %30.14 in10.0 miWest (260°)17.3 mphMostly Cloudy
4:55 PM41.0 °F26.6 °F57 %30.14 in10.0 miWest (280°)12.7 mph17.3 mphClear
5:15 PM39.2 °F24.8 °F56 %30.14 in10.0 miWest (270°)9.2 mphClear
5:35 PM39.2 °F24.8 °F56 %30.13 in10.0 miWSW (240°)5.8 mphClear
5:55 PM37.4 °F23.0 °F56 %30.13 in10.0 miWest (260°)8.1 mphClear
6:15 PM37.4 °F24.8 °F60 %30.15 in10.0 miNNW (340°)6.9 mphClear
6:35 PM37.4 °F24.8 °F60 %30.14 in10.0 miNNW (340°)5.8 mphClear
6:55 PM35.6 °F24.8 °F65 %30.15 in10.0 miNorth (360°)6.9 mphClear
7:15 PM35.6 °F24.8 °F65 %30.15 in10.0 miNW (310°)3.5 mphClear
7:35 PM35.6 °F24.8 °F65 %30.16 in10.0 miNNW (340°)8.1 mphPartly Cloudy
7:55 PM35.6 °F24.8 °F65 %30.16 in10.0 miCalmPartly Cloudy
8:15 PM35.6 °F24.8 °F65 %30.15 in10.0 miWNW (290°)6.9 mphMostly Cloudy
8:35 PM35.6 °F24.8 °F65 %30.16 in10.0 miNNW (340°)3.5 mphOvercast
8:55 PM32.0 °F24.8 °F75 %30.12 in10.0 miSouth (180°)5.8 mphScattered Clouds
9:15 PM32.0 °F24.8 °F75 %30.13 in10.0 miWNW (300°)5.8 mphClear
9:35 PM35.6 °F24.8 °F65 %30.14 in10.0 miWNW (290°)8.1 mphMostly Cloudy
9:55 PM35.6 °F24.8 °F65 %30.15 in10.0 miSSE (160°)3.5 mphMostly Cloudy
10:15 PM32.0 °F24.8 °F75 %30.13 in10.0 miSSE (150°)6.9 mphScattered Clouds
10:35 PM33.8 °F23.0 °F65 %30.12 in10.0 miSouth (180°)6.9 mphScattered Clouds
10:55 PM35.6 °F23.0 °F60 %30.12 in10.0 miSW (220°)3.5 mphScattered Clouds
11:15 PM33.8 °F24.8 °F70 %30.11 in10.0 miENE (60°)5.8 mphOvercast
11:35 PM33.8 °F24.8 °F70 %30.11 in10.0 miSE (140°)3.5 mphOvercast
11:55 PM35.6 °F24.8 °F65 %30.09 in10.0 miSouth (190°)4.6 mphOvercast
Hourly data recorded from KTRK, located miles away from Truckee, California







STORIES FROM OUR PARTNERS